Regional Weather Roundup
Issued by NWS

Home | Current Version | Previous Version | Text Only | Print | Product List | Glossary On
Versions: 1 2 3 4 5 6 7 8 9 10 11 12 13 14 15 16 17 18 19 20 21 22 23 24 25 26 27 28 29 30 31 32 33 34 35 36 37 38 39 40 41 42 43 44 45 46 47 48
000
ASUS46 KPQR 300710
RWROR

OREGON REGIONAL WEATHER ROUNDUP
NATIONAL WEATHER SERVICE PORTLAND OR
1100 PM PST THU JAN 29 2015

NOTE: "FAIR" INDICATES FEW OR NO CLOUDS BELOW 12,000 FEET WITH
NO SIGNIFICANT WEATHER AND/OR OBSTRUCTIONS TO VISIBILITY.

ORZ001>013-300800-
NORTHWEST OREGON


CITY           SKY/WX    TMP DP  RH WIND       PRES   REMARKS
ASTORIA        CLEAR     44  41  89 SE3       30.25F
NEWPORT        CLEAR     41  41 100 CALM      30.27S
PORTLAND       CLEAR     41  36  82 CALM      30.30S
VANCOUVER WA   CLEAR     34  31  88 CALM      30.29F
SCAPPOOSE      CLEAR     35  35 100 CALM      30.29S FOG
HILLSBORO      CLEAR     37  32  82 CALM      30.28S
AURORA         CLEAR     41  35  79 N8        30.28S
MCMINNVILLE    CLEAR     43  39  86 N6        30.27F
SALEM          CLEAR     39  35  86 NW3       30.26S
CORVALLIS      CLEAR     39  36  87 NW3       30.27S
EUGENE         FOG       38  37  97 CALM      30.26S VSB 1/8
$$

ORZ021-028-300800-
SOUTHWEST OREGON


CITY           SKY/WX    TMP DP  RH WIND       PRES   REMARKS
NORTH BEND     CLEAR     46  46 100 CALM      30.24S
BROOKINGS      CLEAR     46  46 100 CALM      30.18R
ROSEBURG       CLOUDY    47  45  93 S3        30.25S
SEXTON SUMMIT  CLEAR     48  31  51 NE8       30.20S
MEDFORD        CLEAR     41  37  86 CALM      30.21S
$$

ORZ014>016-041-300800-
COLUMBIA GORGE


CITY           SKY/WX    TMP DP  RH WIND       PRES   REMARKS
TROUTDALE      CLEAR     44  34  67 E21G30    30.28S
THE DALLES     CLOUDY    41  36  82 NE5       30.45F
$$

ORZ029>031-041-044-049-050-061>064-502-503-505>511-300800-
EASTERN OREGON


CITY           SKY/WX    TMP DP  RH WIND       PRES   REMARKS
REDMOND        CLOUDY    35  35 100 NW5       30.32S FOG     WCI  31
BEND           CLOUDY    34  34 100 CALM      30.32F FOG
PRINEVILLE     FOG       36  36 100 CALM      30.32S VSB 1
KLAMATH FALLS  CLEAR     38  33  82 N10       30.21S WCI  31
LAKEVIEW       CLEAR     37  30  75 N10       30.24S WCI  30
HERMISTON      CLOUDY    38  35  89 N3        30.44R FOG
PENDLETON      CLOUDY    34  33  96 CALM      30.39S FOG
JOHN DAY       PTCLDY    37  30  77 SE12      30.29S WCI  29
MEACHAM        CLEAR     27  24  89 CALM      30.29F
LA GRANDE      CLEAR     28  21  74 CALM      30.33S
BAKER CITY     CLEAR     26  23  88 CALM      30.33S
BURNS          PTCLDY    29  25  85 NE7       30.31S WCI  22
ROME             N/A     35  30  82 N6        30.29S WCI  30
ONTARIO        PTCLDY    32  30  92 N3        30.37S
$$


USA.gov is the U.S. government's official web portal to all federal, state and local government web resources and services.